Tracking 35275 objects as of 8-Sep-2026
HD Live streaming from Space Station
objects crossing your sky now

STARLINK-33897

Track STARLINK-33897 now!
10-day predictions
STARLINK-33897 is classified as:


NORAD ID: 63865
Int'l Code: 2025-094B
Launch date: May 10, 2025
Source: United States (US)
Launch site: AIR FORCE WESTERN TEST RANGE (AFWTR)
Your satellite tracking list
Your tracking list is empty




NASA's NSSDC Master Catalog

Two Line Element Set (TLE):
1 63865U 25094B   26251.58335648  .00078551  00000-0  27093-2 0  9995
2 63865  70.0000 132.5990 0003330 271.9092 209.4730 15.29569808  5772
Source of the keplerian elements: AFSPC